contact:dominique.lefevre@mio.osupytheas.fr, maurice.libes@osupytheas.fr, didier.mallarino@osupytheas.fr
Project:EMSO http://www.emso-fr.org/EMSO-France
Depth: 2436.0 m
Title:EMSO Ligure Ouest : Data MII capteur MICROCAT
DateTime_Computer,Latitude,Longitude,Temperature,Conductivity,Pressure,DateTime_Instrument
DateTime_Computer,Latitude,Longitude,degC,S m-1,dbar,DateTime_Instrument
2021-09-03T00:00:08Z,42.805,6.029,13.2990,4.59999,2470.52,2021-9-03T02:01:28Z
2021-09-03T00:03:12Z,42.805,6.029,13.2987,4.59999,2470.507,2021-9-03T02:04:32Z
2021-09-03T00:06:15Z,42.805,6.029,13.2982,4.59999,2470.483,2021-9-03T02:07:35Z
2021-09-03T00:09:18Z,42.805,6.029,13.2991,4.59999,2470.474,2021-9-03T02:10:38Z
2021-09-03T00:12:21Z,42.805,6.029,13.2989,4.60001,2470.497,2021-9-03T02:13:41Z
2021-09-03T00:15:24Z,42.805,6.029,13.2988,4.59999,2470.46,2021-9-03T02:16:44Z
2021-09-03T00:18:27Z,42.805,6.029,13.2989,4.59999,2470.474,2021-9-03T02:19:47Z
2021-09-03T00:21:30Z,42.805,6.029,13.2987,4.60000,2470.497,2021-9-03T02:22:50Z
2021-09-03T00:24:33Z,42.805,6.029,13.2986,4.59999,2470.497,2021-9-03T02:25:53Z
2021-09-03T00:27:36Z,42.805,6.029,13.2987,4.60000,2470.544,2021-9-03T02:28:57Z
2021-09-03T00:30:40Z,42.805,6.029,13.2989,4.59999,2470.474,2021-9-03T02:32:00Z
2021-09-03T00:33:43Z,42.805,6.029,13.2987,4.59999,2470.483,2021-9-03T02:35:03Z
2021-09-03T00:36:46Z,42.805,6.029,13.2991,4.60002,2470.46,2021-9-03T02:38:06Z
2021-09-03T00:39:49Z,42.805,6.029,13.2987,4.59999,2470.437,2021-9-03T02:41:09Z
2021-09-03T00:42:52Z,42.805,6.029,13.2985,4.59995,2470.507,2021-9-03T02:44:12Z
2021-09-03T00:45:55Z,42.805,6.029,13.2990,4.60000,2470.507,2021-9-03T02:47:15Z
2021-09-03T00:48:58Z,42.805,6.029,13.2986,4.59999,2470.483,2021-9-03T02:50:18Z
2021-09-03T00:52:01Z,42.805,6.029,13.2989,4.59999,2470.45,2021-9-03T02:53:22Z
2021-09-03T00:55:05Z,42.805,6.029,13.2990,4.59999,2470.483,2021-9-03T02:56:25Z
2021-09-03T00:58:08Z,42.805,6.029,13.2988,4.59999,2470.483,2021-9-03T02:59:28Z
2021-09-03T01:01:11Z,42.805,6.029,13.2987,4.60000,2470.46,2021-9-03T03:02:31Z
2021-09-03T01:04:14Z,42.805,6.029,13.2984,4.60000,2470.497,2021-9-03T03:05:34Z
2021-09-03T01:07:17Z,42.805,6.029,13.2986,4.59999,2470.483,2021-9-03T03:08:37Z
2021-09-03T01:10:20Z,42.805,6.029,13.2986,4.60001,2470.483,2021-9-03T03:11:40Z
2021-09-03T01:13:23Z,42.805,6.029,13.2983,4.60001,2470.483,2021-9-03T03:14:43Z
2021-09-03T01:16:26Z,42.805,6.029,13.2990,4.60001,2470.507,2021-9-03T03:17:46Z
2021-09-03T01:19:29Z,42.805,6.029,13.2990,4.60000,2470.437,2021-9-03T03:20:50Z
2021-09-03T01:22:33Z,42.805,6.029,13.2990,4.59999,2470.507,2021-9-03T03:23:53Z
2021-09-03T01:25:36Z,42.805,6.029,13.2987,4.60000,2470.474,2021-9-03T03:26:56Z
2021-09-03T01:28:39Z,42.805,6.029,13.2991,4.60001,2470.52,2021-9-03T03:29:59Z
2021-09-03T01:31:42Z,42.805,6.029,13.2988,4.60000,2470.52,2021-9-03T03:33:02Z
2021-09-03T01:34:45Z,42.805,6.029,13.2989,4.60001,2470.52,2021-9-03T03:36:05Z
2021-09-03T01:37:48Z,42.805,6.029,13.2988,4.59999,2470.483,2021-9-03T03:39:08Z
2021-09-03T01:40:51Z,42.805,6.029,13.2990,4.60000,2470.483,2021-9-03T03:42:11Z
2021-09-03T01:43:54Z,42.805,6.029,13.2988,4.59999,2470.52,2021-9-03T03:45:15Z
2021-09-03T01:46:58Z,42.805,6.029,13.2992,4.59999,2470.483,2021-9-03T03:48:18Z
2021-09-03T01:50:01Z,42.805,6.029,13.2987,4.60000,2470.507,2021-9-03T03:51:21Z
2021-09-03T01:53:04Z,42.805,6.029,13.2991,4.60000,2470.497,2021-9-03T03:54:24Z
2021-09-03T01:56:07Z,42.805,6.029,13.2990,4.59999,2470.497,2021-9-03T03:57:27Z
2021-09-03T01:59:10Z,42.805,6.029,13.2989,4.59999,2470.46,2021-9-03T04:00:30Z
2021-09-03T02:02:13Z,42.805,6.029,13.2993,4.60000,2470.507,2021-9-03T04:03:33Z
2021-09-03T02:05:16Z,42.805,6.029,13.2986,4.59999,2470.483,2021-9-03T04:06:36Z
2021-09-03T02:08:19Z,42.805,6.029,13.2986,4.60000,2470.446,2021-9-03T04:09:39Z
2021-09-03T02:11:22Z,42.805,6.029,13.2986,4.60000,2470.52,2021-9-03T04:12:43Z
2021-09-03T02:14:26Z,42.805,6.029,13.2990,4.59999,2470.497,2021-9-03T04:15:46Z
2021-09-03T02:17:29Z,42.805,6.029,13.2991,4.60000,2470.507,2021-9-03T04:18:49Z
2021-09-03T02:20:32Z,42.805,6.029,13.2987,4.59998,2470.46,2021-9-03T04:21:52Z
2021-09-03T02:23:35Z,42.805,6.029,13.2991,4.60001,2470.497,2021-9-03T04:24:55Z
2021-09-03T02:26:38Z,42.805,6.029,13.2986,4.60000,2470.52,2021-9-03T04:27:58Z
2021-09-03T02:29:41Z,42.805,6.029,13.2987,4.60000,2470.52,2021-9-03T04:31:01Z
2021-09-03T02:32:44Z,42.805,6.029,13.2988,4.60000,2470.483,2021-9-03T04:34:04Z
2021-09-03T02:35:47Z,42.805,6.029,13.2988,4.60000,2470.474,2021-9-03T04:37:07Z
2021-09-03T02:38:51Z,42.805,6.029,13.2990,4.60000,2470.497,2021-9-03T04:40:11Z
2021-09-03T02:41:54Z,42.805,6.029,13.2991,4.60001,2470.52,2021-9-03T04:43:14Z
2021-09-03T02:44:57Z,42.805,6.029,13.2990,4.59999,2470.544,2021-9-03T04:46:17Z
2021-09-03T02:48:00Z,42.805,6.029,13.2988,4.60000,2470.507,2021-9-03T04:49:20Z
2021-09-03T02:51:03Z,42.805,6.029,13.2986,4.60001,2470.497,2021-9-03T04:52:23Z
2021-09-03T02:54:06Z,42.805,6.029,13.2991,4.60000,2470.483,2021-9-03T04:55:26Z
2021-09-03T02:57:09Z,42.805,6.029,13.2989,4.60000,2470.483,2021-9-03T04:58:29Z
2021-09-03T03:00:12Z,42.805,6.029,13.2986,4.59999,2470.507,2021-9-03T05:01:32Z
2021-09-03T03:03:16Z,42.805,6.029,13.2986,4.60001,2470.567,2021-9-03T05:04:36Z
2021-09-03T03:06:19Z,42.805,6.029,13.2986,4.60000,2470.507,2021-9-03T05:07:39Z
2021-09-03T03:09:22Z,42.805,6.029,13.2986,4.60001,2470.553,2021-9-03T05:10:42Z
2021-09-03T03:12:25Z,42.805,6.029,13.2989,4.60000,2470.507,2021-9-03T05:13:45Z
2021-09-03T03:15:28Z,42.805,6.029,13.2991,4.59999,2470.507,2021-9-03T05:16:48Z
2021-09-03T03:18:31Z,42.805,6.029,13.2988,4.59999,2470.544,2021-9-03T05:19:51Z
2021-09-03T03:21:34Z,42.805,6.029,13.2988,4.59999,2470.483,2021-9-03T05:22:54Z
2021-09-03T03:24:37Z,42.805,6.029,13.2987,4.60000,2470.483,2021-9-03T05:25:57Z
2021-09-03T03:27:40Z,42.805,6.029,13.2987,4.59999,2470.53,2021-9-03T05:29:01Z
2021-09-03T03:30:44Z,42.805,6.029,13.2990,4.60000,2470.567,2021-9-03T05:32:04Z
2021-09-03T03:33:47Z,42.805,6.029,13.2987,4.59999,2470.53,2021-9-03T05:35:07Z
2021-09-03T03:36:50Z,42.805,6.029,13.2990,4.60001,2470.52,2021-9-03T05:38:10Z
2021-09-03T03:39:53Z,42.805,6.029,13.2985,4.60001,2470.53,2021-9-03T05:41:13Z
2021-09-03T03:42:56Z,42.805,6.029,13.2984,4.60000,2470.53,2021-9-03T05:44:16Z
2021-09-03T03:45:59Z,42.805,6.029,13.2990,4.59999,2470.53,2021-9-03T05:47:19Z
2021-09-03T03:49:02Z,42.805,6.029,13.2989,4.59999,2470.507,2021-9-03T05:50:22Z
2021-09-03T03:52:05Z,42.805,6.029,13.2990,4.60001,2470.507,2021-9-03T05:53:25Z
2021-09-03T03:55:09Z,42.805,6.029,13.2983,4.60002,2470.507,2021-9-03T05:56:29Z
2021-09-03T03:58:12Z,42.805,6.029,13.2990,4.59999,2470.507,2021-9-03T05:59:32Z
2021-09-03T04:01:15Z,42.805,6.029,13.2990,4.59999,2470.53,2021-9-03T06:02:35Z
2021-09-03T04:04:18Z,42.805,6.029,13.2989,4.60000,2470.53,2021-9-03T06:05:38Z
2021-09-03T04:07:21Z,42.805,6.029,13.2988,4.60000,2470.53,2021-9-03T06:08:41Z
2021-09-03T04:10:24Z,42.805,6.029,13.2991,4.59999,2470.507,2021-9-03T06:11:44Z
2021-09-03T04:13:27Z,42.805,6.029,13.2987,4.60000,2470.553,2021-9-03T06:14:47Z
2021-09-03T04:16:30Z,42.805,6.029,13.2986,4.60000,2470.52,2021-9-03T06:17:50Z
2021-09-03T04:19:33Z,42.805,6.029,13.2990,4.60001,2470.553,2021-9-03T06:20:54Z
2021-09-03T04:22:37Z,42.805,6.029,13.2990,4.60001,2470.53,2021-9-03T06:23:57Z
2021-09-03T04:25:40Z,42.805,6.029,13.2985,4.60001,2470.567,2021-9-03T06:27:00Z
2021-09-03T04:28:43Z,42.805,6.029,13.2990,4.60000,2470.567,2021-9-03T06:30:03Z
2021-09-03T04:31:46Z,42.805,6.029,13.2986,4.59999,2470.567,2021-9-03T06:33:06Z
2021-09-03T04:34:49Z,42.805,6.029,13.2990,4.60000,2470.53,2021-9-03T06:36:09Z
2021-09-03T04:37:52Z,42.805,6.029,13.2987,4.59999,2470.553,2021-9-03T06:39:12Z
2021-09-03T04:40:55Z,42.805,6.029,13.2988,4.59999,2470.553,2021-9-03T06:42:15Z
2021-09-03T04:43:58Z,42.805,6.029,13.2990,4.59999,2470.553,2021-9-03T06:45:18Z
2021-09-03T04:47:02Z,42.805,6.029,13.2988,4.59999,2470.553,2021-9-03T06:48:22Z
2021-09-03T04:50:05Z,42.805,6.029,13.2988,4.60001,2470.53,2021-9-03T06:51:25Z
2021-09-03T04:53:08Z,42.805,6.029,13.2989,4.60000,2470.507,2021-9-03T06:54:28Z
2021-09-03T04:56:11Z,42.805,6.029,13.2988,4.60000,2470.553,2021-9-03T06:57:31Z
2021-09-03T04:59:14Z,42.805,6.029,13.2986,4.60000,2470.507,2021-9-03T07:00:34Z
2021-09-03T05:02:17Z,42.805,6.029,13.2986,4.60000,2470.507,2021-9-03T07:03:37Z
2021-09-03T05:05:20Z,42.805,6.029,13.2986,4.59999,2470.553,2021-9-03T07:06:40Z
2021-09-03T05:08:23Z,42.805,6.029,13.2985,4.60000,2470.553,2021-9-03T07:09:43Z
2021-09-03T05:11:26Z,42.805,6.029,13.2988,4.59999,2470.53,2021-9-03T07:12:46Z
2021-09-03T05:14:30Z,42.805,6.029,13.2985,4.60001,2470.53,2021-9-03T07:15:50Z
2021-09-03T05:17:33Z,42.805,6.029,13.2985,4.60001,2470.507,2021-9-03T07:18:53Z
2021-09-03T05:20:36Z,42.805,6.029,13.2987,4.60000,2470.53,2021-9-03T07:21:56Z
2021-09-03T05:23:39Z,42.805,6.029,13.2987,4.60000,2470.483,2021-9-03T07:24:59Z
2021-09-03T05:26:42Z,42.805,6.029,13.2990,4.60002,2470.53,2021-9-03T07:28:02Z
2021-09-03T05:29:45Z,42.805,6.029,13.2987,4.60001,2470.53,2021-9-03T07:31:05Z
2021-09-03T05:32:48Z,42.805,6.029,13.2986,4.59999,2470.544,2021-9-03T07:34:08Z
2021-09-03T05:35:51Z,42.805,6.029,13.2990,4.59999,2470.53,2021-9-03T07:37:11Z
2021-09-03T05:38:55Z,42.805,6.029,13.2986,4.60000,2470.52,2021-9-03T07:40:15Z
2021-09-03T05:41:58Z,42.805,6.029,13.2990,4.59999,2470.567,2021-9-03T07:43:18Z
2021-09-03T05:45:01Z,42.805,6.029,13.2991,4.60001,2470.544,2021-9-03T07:46:21Z
2021-09-03T05:48:04Z,42.805,6.029,13.2988,4.60000,2470.52,2021-9-03T07:49:24Z
2021-09-03T05:51:07Z,42.805,6.029,13.2990,4.60002,2470.544,2021-9-03T07:52:27Z
2021-09-03T05:54:10Z,42.805,6.029,13.2984,4.59999,2470.52,2021-9-03T07:55:30Z
2021-09-03T05:57:13Z,42.805,6.029,13.2992,4.60000,2470.544,2021-9-03T07:58:33Z
2021-09-03T06:00:16Z,42.805,6.029,13.2990,4.60001,2470.53,2021-9-03T08:01:36Z
2021-09-03T06:03:19Z,42.805,6.029,13.2986,4.60000,2470.507,2021-9-03T08:04:40Z
2021-09-03T06:06:23Z,42.805,6.029,13.2987,4.59999,2470.507,2021-9-03T08:07:43Z
2021-09-03T06:09:26Z,42.805,6.029,13.2991,4.60001,2470.507,2021-9-03T08:10:46Z
2021-09-03T06:12:29Z,42.805,6.029,13.2989,4.60000,2470.52,2021-9-03T08:13:49Z
2021-09-03T06:15:32Z,42.805,6.029,13.2989,4.60001,2470.497,2021-9-03T08:16:52Z
2021-09-03T06:18:35Z,42.805,6.029,13.2986,4.60001,2470.507,2021-9-03T08:19:55Z
2021-09-03T06:21:38Z,42.805,6.029,13.2989,4.59999,2470.53,2021-9-03T08:22:58Z
2021-09-03T06:24:41Z,42.805,6.029,13.2983,4.59999,2470.497,2021-9-03T08:26:01Z
2021-09-03T06:27:44Z,42.805,6.029,13.2988,4.60001,2470.483,2021-9-03T08:29:04Z
2021-09-03T06:30:48Z,42.805,6.029,13.2986,4.60000,2470.497,2021-9-03T08:32:08Z
2021-09-03T06:33:51Z,42.805,6.029,13.2990,4.60000,2470.46,2021-9-03T08:35:11Z
2021-09-03T06:36:54Z,42.805,6.029,13.2990,4.59999,2470.507,2021-9-03T08:38:14Z
2021-09-03T06:39:57Z,42.805,6.029,13.2986,4.60000,2470.507,2021-9-03T08:41:17Z
2021-09-03T06:43:00Z,42.805,6.029,13.2984,4.59999,2470.483,2021-9-03T08:44:20Z
2021-09-03T06:46:03Z,42.805,6.029,13.2988,4.59999,2470.507,2021-9-03T08:47:23Z
2021-09-03T06:49:06Z,42.805,6.029,13.2986,4.59999,2470.567,2021-9-03T08:50:26Z
2021-09-03T06:52:09Z,42.805,6.029,13.2988,4.59999,2470.483,2021-9-03T08:53:29Z
2021-09-03T06:55:13Z,42.805,6.029,13.2986,4.59999,2470.53,2021-9-03T08:56:33Z
2021-09-03T06:58:16Z,42.805,6.029,13.2987,4.60000,2470.46,2021-9-03T08:59:36Z
2021-09-03T07:01:19Z,42.805,6.029,13.2987,4.59999,2470.53,2021-9-03T09:02:39Z
2021-09-03T07:04:22Z,42.805,6.029,13.2986,4.59999,2470.483,2021-9-03T09:05:42Z
2021-09-03T07:07:25Z,42.805,6.029,13.2986,4.59999,2470.507,2021-9-03T09:08:45Z
2021-09-03T07:10:28Z,42.805,6.029,13.2987,4.60001,2470.497,2021-9-03T09:11:48Z
2021-09-03T07:13:31Z,42.805,6.029,13.2990,4.59999,2470.483,2021-9-03T09:14:51Z
2021-09-03T07:16:34Z,42.805,6.029,13.2988,4.59999,2470.507,2021-9-03T09:17:54Z
2021-09-03T07:19:37Z,42.805,6.029,13.2989,4.59999,2470.483,2021-9-03T09:20:57Z
2021-09-03T07:22:41Z,42.805,6.029,13.2988,4.59999,2470.507,2021-9-03T09:24:01Z
2021-09-03T07:25:44Z,42.805,6.029,13.2988,4.59999,2470.52,2021-9-03T09:27:04Z
2021-09-03T07:28:47Z,42.805,6.029,13.2983,4.59999,2470.507,2021-9-03T09:30:07Z
2021-09-03T07:31:50Z,42.805,6.029,13.2988,4.59999,2470.52,2021-9-03T09:33:10Z
2021-09-03T07:34:53Z,42.805,6.029,13.2990,4.59999,2470.483,2021-9-03T09:36:13Z
2021-09-03T07:37:56Z,42.805,6.029,13.2989,4.60000,2470.46,2021-9-03T09:39:16Z
2021-09-03T07:40:59Z,42.805,6.029,13.2989,4.59999,2470.474,2021-9-03T09:42:19Z
2021-09-03T07:44:02Z,42.805,6.029,13.2990,4.59999,2470.483,2021-9-03T09:45:22Z
2021-09-03T07:47:06Z,42.805,6.029,13.2990,4.60001,2470.483,2021-9-03T09:48:26Z
2021-09-03T07:50:09Z,42.805,6.029,13.2986,4.60000,2470.52,2021-9-03T09:51:29Z
2021-09-03T07:53:12Z,42.805,6.029,13.2988,4.59999,2470.46,2021-9-03T09:54:32Z
2021-09-03T07:56:15Z,42.805,6.029,13.2986,4.59999,2470.46,2021-9-03T09:57:35Z
2021-09-03T07:59:18Z,42.805,6.029,13.2986,4.59999,2470.46,2021-9-03T10:00:38Z
2021-09-03T08:02:21Z,42.805,6.029,13.2987,4.60000,2470.483,2021-9-03T10:03:41Z
2021-09-03T08:05:24Z,42.805,6.029,13.2988,4.60000,2470.483,2021-9-03T10:06:44Z
2021-09-03T08:08:27Z,42.805,6.029,13.2984,4.59999,2470.474,2021-9-03T10:09:47Z
2021-09-03T08:11:30Z,42.805,6.029,13.2989,4.59999,2470.437,2021-9-03T10:12:50Z
2021-09-03T08:14:34Z,42.805,6.029,13.2988,4.59999,2470.474,2021-9-03T10:15:54Z
2021-09-03T08:17:37Z,42.805,6.029,13.2985,4.59999,2470.483,2021-9-03T10:18:57Z
2021-09-03T08:20:40Z,42.805,6.029,13.2988,4.59999,2470.437,2021-9-03T10:22:00Z
2021-09-03T08:23:43Z,42.805,6.029,13.2987,4.59999,2470.437,2021-9-03T10:25:03Z
2021-09-03T08:26:46Z,42.805,6.029,13.2986,4.59999,2470.45,2021-9-03T10:28:06Z
2021-09-03T08:29:49Z,42.805,6.029,13.2993,4.59999,2470.483,2021-9-03T10:31:09Z
2021-09-03T08:32:52Z,42.805,6.029,13.2986,4.59999,2470.497,2021-9-03T10:34:12Z
2021-09-03T08:35:55Z,42.805,6.029,13.2990,4.60001,2470.483,2021-9-03T10:37:15Z
2021-09-03T08:38:59Z,42.805,6.029,13.2987,4.59999,2470.46,2021-9-03T10:40:19Z
2021-09-03T08:42:02Z,42.805,6.029,13.2987,4.59999,2470.474,2021-9-03T10:43:22Z
2021-09-03T08:45:05Z,42.805,6.029,13.2985,4.59999,2470.437,2021-9-03T10:46:25Z
2021-09-03T08:48:08Z,42.805,6.029,13.2987,4.59999,2470.437,2021-9-03T10:49:28Z
2021-09-03T08:51:11Z,42.805,6.029,13.2985,4.60000,2470.413,2021-9-03T10:52:31Z
2021-09-03T08:54:14Z,42.805,6.029,13.2985,4.59999,2470.474,2021-9-03T10:55:34Z
2021-09-03T08:57:17Z,42.805,6.029,13.2987,4.60001,2470.46,2021-9-03T10:58:37Z
2021-09-03T09:00:20Z,42.805,6.029,13.2990,4.59999,2470.45,2021-9-03T11:01:40Z
2021-09-03T09:03:24Z,42.805,6.029,13.2986,4.59999,2470.45,2021-9-03T11:04:44Z
2021-09-03T09:06:27Z,42.805,6.029,13.2986,4.59999,2470.437,2021-9-03T11:07:47Z
2021-09-03T09:09:30Z,42.805,6.029,13.2986,4.59999,2470.437,2021-9-03T11:10:50Z
2021-09-03T09:12:33Z,42.805,6.029,13.2983,4.59999,2470.427,2021-9-03T11:13:53Z
2021-09-03T09:15:36Z,42.805,6.029,13.2987,4.59999,2470.427,2021-9-03T11:16:56Z
2021-09-03T09:18:39Z,42.805,6.029,13.2990,4.60000,2470.427,2021-9-03T11:19:59Z
2021-09-03T09:21:43Z,42.805,6.029,13.2988,4.60000,2470.45,2021-9-03T11:23:03Z
2021-09-03T09:24:46Z,42.805,6.029,13.2986,4.59999,2470.437,2021-9-03T11:26:06Z
2021-09-03T09:27:49Z,42.805,6.029,13.2988,4.60000,2470.474,2021-9-03T11:29:09Z
2021-09-03T09:30:52Z,42.805,6.029,13.2987,4.59999,2470.413,2021-9-03T11:32:12Z
2021-09-03T09:33:56Z,42.805,6.029,13.2987,4.59998,2470.413,2021-9-03T11:35:16Z
2021-09-03T09:36:59Z,42.805,6.029,13.2990,4.59999,2470.46,2021-9-03T11:38:19Z
2021-09-03T09:40:02Z,42.805,6.029,13.2986,4.59999,2470.45,2021-9-03T11:41:22Z
2021-09-03T09:43:05Z,42.805,6.029,13.2986,4.59999,2470.45,2021-9-03T11:44:25Z
2021-09-03T09:46:08Z,42.805,6.029,13.2987,4.59999,2470.404,2021-9-03T11:47:28Z
2021-09-03T09:49:11Z,42.805,6.029,13.2986,4.59999,2470.45,2021-9-03T11:50:31Z
2021-09-03T09:52:14Z,42.805,6.029,13.2983,4.59999,2470.427,2021-9-03T11:53:34Z
2021-09-03T09:55:17Z,42.805,6.029,13.2986,4.59999,2470.404,2021-9-03T11:56:37Z
2021-09-03T09:58:20Z,42.805,6.029,13.2990,4.59999,2470.437,2021-9-03T11:59:41Z
2021-09-03T10:01:24Z,42.805,6.029,13.2988,4.59999,2470.427,2021-9-03T12:02:44Z
2021-09-03T10:04:27Z,42.805,6.029,13.2989,4.60000,2470.437,2021-9-03T12:05:47Z
2021-09-03T10:07:30Z,42.805,6.029,13.2989,4.60000,2470.437,2021-9-03T12:08:50Z
2021-09-03T10:10:33Z,42.805,6.029,13.2982,4.59999,2470.46,2021-9-03T12:11:53Z
2021-09-03T10:13:36Z,42.805,6.029,13.2987,4.59999,2470.437,2021-9-03T12:14:56Z
2021-09-03T10:16:39Z,42.805,6.029,13.2988,4.59999,2470.427,2021-9-03T12:17:59Z
2021-09-03T10:19:42Z,42.805,6.029,13.2988,4.60000,2470.39,2021-9-03T12:21:02Z
2021-09-03T10:22:45Z,42.805,6.029,13.2987,4.60000,2470.427,2021-9-03T12:24:05Z
2021-09-03T10:25:49Z,42.805,6.029,13.2988,4.59999,2470.39,2021-9-03T12:27:09Z
2021-09-03T10:28:52Z,42.805,6.029,13.2988,4.59999,2470.45,2021-9-03T12:30:12Z
2021-09-03T10:31:55Z,42.805,6.029,13.2990,4.60001,2470.404,2021-9-03T12:33:15Z
2021-09-03T10:34:58Z,42.805,6.029,13.2987,4.59999,2470.413,2021-9-03T12:36:18Z
2021-09-03T10:38:01Z,42.805,6.029,13.2991,4.59999,2470.413,2021-9-03T12:39:21Z
2021-09-03T10:41:04Z,42.805,6.029,13.2989,4.59999,2470.427,2021-9-03T12:42:24Z
2021-09-03T10:44:07Z,42.805,6.029,13.2986,4.59999,2470.427,2021-9-03T12:45:27Z
2021-09-03T10:47:10Z,42.805,6.029,13.2984,4.60001,2470.427,2021-9-03T12:48:30Z
2021-09-03T10:50:14Z,42.805,6.029,13.2986,4.59999,2470.437,2021-9-03T12:51:34Z
2021-09-03T10:53:17Z,42.805,6.029,13.2985,4.60000,2470.437,2021-9-03T12:54:37Z
2021-09-03T10:56:20Z,42.805,6.029,13.2987,4.59999,2470.413,2021-9-03T12:57:40Z
2021-09-03T10:59:23Z,42.805,6.029,13.2988,4.59999,2470.427,2021-9-03T13:00:43Z
2021-09-03T11:02:26Z,42.805,6.029,13.2986,4.60000,2470.437,2021-9-03T13:03:46Z
2021-09-03T11:05:29Z,42.805,6.029,13.2988,4.60000,2470.427,2021-9-03T13:06:49Z
2021-09-03T11:08:32Z,42.805,6.029,13.2986,4.59999,2470.413,2021-9-03T13:09:52Z
2021-09-03T11:11:35Z,42.805,6.029,13.2987,4.59999,2470.39,2021-9-03T13:12:55Z
2021-09-03T11:14:39Z,42.805,6.029,13.2988,4.59999,2470.427,2021-9-03T13:15:59Z
2021-09-03T11:17:42Z,42.805,6.029,13.2988,4.59999,2470.45,2021-9-03T13:19:02Z
2021-09-03T11:20:45Z,42.805,6.029,13.2991,4.59999,2470.437,2021-9-03T13:22:05Z
2021-09-03T11:23:48Z,42.805,6.029,13.2983,4.59999,2470.413,2021-9-03T13:25:08Z
2021-09-03T11:26:51Z,42.805,6.029,13.2987,4.59999,2470.437,2021-9-03T13:28:11Z
2021-09-03T11:29:54Z,42.805,6.029,13.2990,4.59999,2470.39,2021-9-03T13:31:14Z
2021-09-03T11:32:57Z,42.805,6.029,13.2987,4.59999,2470.413,2021-9-03T13:34:17Z
2021-09-03T11:36:00Z,42.805,6.029,13.2989,4.59999,2470.413,2021-9-03T13:37:20Z
2021-09-03T11:39:03Z,42.805,6.029,13.2990,4.59999,2470.413,2021-9-03T13:40:24Z
2021-09-03T11:42:07Z,42.805,6.029,13.2990,4.60001,2470.427,2021-9-03T13:43:27Z
2021-09-03T11:45:10Z,42.805,6.029,13.2989,4.59999,2470.39,2021-9-03T13:46:30Z
2021-09-03T11:48:13Z,42.805,6.029,13.2988,4.60000,2470.413,2021-9-03T13:49:33Z
2021-09-03T11:51:16Z,42.805,6.029,13.2987,4.59999,2470.39,2021-9-03T13:52:36Z
2021-09-03T11:54:19Z,42.805,6.029,13.2983,4.59999,2470.437,2021-9-03T13:55:39Z
2021-09-03T11:57:22Z,42.805,6.029,13.2987,4.59999,2470.413,2021-9-03T13:58:42Z
2021-09-03T12:00:25Z,42.805,6.029,13.2982,4.60000,2470.413,2021-9-03T14:01:45Z
2021-09-03T12:03:28Z,42.805,6.029,13.2985,4.59999,2470.474,2021-9-03T14:04:49Z
2021-09-03T12:06:32Z,42.805,6.029,13.2985,4.59999,2470.437,2021-9-03T14:07:52Z
2021-09-03T12:09:35Z,42.805,6.029,13.2990,4.59999,2470.45,2021-9-03T14:10:55Z
2021-09-03T12:12:38Z,42.805,6.029,13.2987,4.59999,2470.427,2021-9-03T14:13:58Z
2021-09-03T12:15:41Z,42.805,6.029,13.2987,4.59999,2470.413,2021-9-03T14:17:01Z
2021-09-03T12:18:44Z,42.805,6.029,13.2991,4.59999,2470.413,2021-9-03T14:20:04Z
2021-09-03T12:21:47Z,42.805,6.029,13.2983,4.59999,2470.437,2021-9-03T14:23:07Z
2021-09-03T12:24:50Z,42.805,6.029,13.2986,4.59999,2470.46,2021-9-03T14:26:10Z
2021-09-03T12:27:53Z,42.805,6.029,13.2989,4.59999,2470.45,2021-9-03T14:29:14Z
2021-09-03T12:30:57Z,42.805,6.029,13.2988,4.60001,2470.413,2021-9-03T14:32:17Z
2021-09-03T12:34:00Z,42.805,6.029,13.2991,4.59999,2470.413,2021-9-03T14:35:20Z
2021-09-03T12:37:03Z,42.805,6.029,13.2986,4.60001,2470.46,2021-9-03T14:38:23Z
2021-09-03T12:40:06Z,42.805,6.029,13.2986,4.59999,2470.437,2021-9-03T14:41:26Z
2021-09-03T12:43:09Z,42.805,6.029,13.2988,4.59999,2470.46,2021-9-03T14:44:29Z
2021-09-03T12:46:12Z,42.805,6.029,13.2986,4.60000,2470.413,2021-9-03T14:47:32Z
2021-09-03T12:49:15Z,42.805,6.029,13.2989,4.59999,2470.45,2021-9-03T14:50:35Z
2021-09-03T12:52:18Z,42.805,6.029,13.2989,4.59999,2470.474,2021-9-03T14:53:39Z
2021-09-03T12:55:22Z,42.805,6.029,13.2991,4.59999,2470.474,2021-9-03T14:56:42Z
2021-09-03T12:58:25Z,42.805,6.029,13.2987,4.59999,2470.413,2021-9-03T14:59:45Z
2021-09-03T13:01:28Z,42.805,6.029,13.2989,4.59999,2470.437,2021-9-03T15:02:48Z
2021-09-03T13:04:31Z,42.805,6.029,13.2986,4.59999,2470.446,2021-9-03T15:05:51Z
2021-09-03T13:07:34Z,42.805,6.029,13.2986,4.59999,2470.45,2021-9-03T15:08:54Z
2021-09-03T13:10:37Z,42.805,6.029,13.2987,4.60001,2470.45,2021-9-03T15:11:57Z
2021-09-03T13:13:40Z,42.805,6.029,13.2987,4.59998,2470.45,2021-9-03T15:15:00Z
2021-09-03T13:16:43Z,42.805,6.029,13.2988,4.59999,2470.437,2021-9-03T15:18:03Z
2021-09-03T13:19:47Z,42.805,6.029,13.2986,4.59999,2470.497,2021-9-03T15:21:07Z
2021-09-03T13:22:50Z,42.805,6.029,13.2990,4.59999,2470.474,2021-9-03T15:24:10Z
2021-09-03T13:25:53Z,42.805,6.029,13.2985,4.59999,2470.483,2021-9-03T15:27:13Z
2021-09-03T13:28:56Z,42.805,6.029,13.2987,4.59999,2470.497,2021-9-03T15:30:16Z
2021-09-03T13:31:59Z,42.805,6.029,13.2988,4.59999,2470.437,2021-9-03T15:33:19Z
2021-09-03T13:35:02Z,42.805,6.029,13.2985,4.59999,2470.46,2021-9-03T15:36:22Z
2021-09-03T13:38:05Z,42.805,6.029,13.2985,4.59999,2470.474,2021-9-03T15:39:25Z
2021-09-03T13:41:08Z,42.805,6.029,13.2987,4.59999,2470.437,2021-9-03T15:42:28Z
2021-09-03T13:44:12Z,42.805,6.029,13.2983,4.59999,2470.474,2021-9-03T15:45:32Z
2021-09-03T13:47:15Z,42.805,6.029,13.2987,4.59999,2470.497,2021-9-03T15:48:35Z
2021-09-03T13:50:18Z,42.805,6.029,13.2985,4.59999,2470.46,2021-9-03T15:51:38Z
2021-09-03T13:53:21Z,42.805,6.029,13.2987,4.59999,2470.46,2021-9-03T15:54:41Z
2021-09-03T13:56:24Z,42.805,6.029,13.2986,4.59999,2470.46,2021-9-03T15:57:44Z
2021-09-03T13:59:27Z,42.805,6.029,13.2985,4.59999,2470.46,2021-9-03T16:00:47Z
2021-09-03T14:02:30Z,42.805,6.029,13.2986,4.59999,2470.497,2021-9-03T16:03:50Z
2021-09-03T14:05:33Z,42.805,6.029,13.2984,4.60000,2470.497,2021-9-03T16:06:53Z
2021-09-03T14:08:37Z,42.805,6.029,13.2991,4.60000,2470.483,2021-9-03T16:09:57Z
2021-09-03T14:11:40Z,42.805,6.029,13.2986,4.60001,2470.497,2021-9-03T16:13:00Z
2021-09-03T14:14:43Z,42.805,6.029,13.2986,4.59999,2470.497,2021-9-03T16:16:03Z
2021-09-03T14:17:46Z,42.805,6.029,13.2986,4.60000,2470.474,2021-9-03T16:19:06Z
2021-09-03T14:20:49Z,42.805,6.029,13.2989,4.59999,2470.46,2021-9-03T16:22:09Z
2021-09-03T14:23:52Z,42.805,6.029,13.2983,4.60000,2470.507,2021-9-03T16:25:12Z
2021-09-03T14:26:55Z,42.805,6.029,13.2989,4.60000,2470.497,2021-9-03T16:28:15Z
2021-09-03T14:29:58Z,42.805,6.029,13.2986,4.59999,2470.497,2021-9-03T16:31:18Z
2021-09-03T14:33:01Z,42.805,6.029,13.2990,4.59999,2470.544,2021-9-03T16:34:22Z
2021-09-03T14:36:05Z,42.805,6.029,13.2984,4.59999,2470.507,2021-9-03T16:37:25Z
2021-09-03T14:39:08Z,42.805,6.029,13.2986,4.59999,2470.497,2021-9-03T16:40:28Z
2021-09-03T14:42:11Z,42.805,6.029,13.2986,4.60001,2470.544,2021-9-03T16:43:31Z
2021-09-03T14:45:14Z,42.805,6.029,13.2984,4.59999,2470.544,2021-9-03T16:46:34Z
2021-09-03T14:48:17Z,42.805,6.029,13.2983,4.59999,2470.52,2021-9-03T16:49:37Z
2021-09-03T14:51:20Z,42.805,6.029,13.2988,4.59999,2470.507,2021-9-03T16:52:40Z
2021-09-03T14:54:23Z,42.805,6.029,13.2990,4.59999,2470.507,2021-9-03T16:55:43Z
2021-09-03T14:57:26Z,42.805,6.029,13.2987,4.59999,2470.497,2021-9-03T16:58:47Z
2021-09-03T15:00:30Z,42.805,6.029,13.2989,4.59999,2470.507,2021-9-03T17:01:50Z
2021-09-03T15:03:33Z,42.805,6.029,13.2988,4.59999,2470.507,2021-9-03T17:04:53Z
2021-09-03T15:06:36Z,42.805,6.029,13.2988,4.60000,2470.544,2021-9-03T17:07:56Z
2021-09-03T15:09:39Z,42.805,6.029,13.2989,4.59999,2470.52,2021-9-03T17:10:59Z
2021-09-03T15:12:42Z,42.805,6.029,13.2991,4.60001,2470.53,2021-9-03T17:14:02Z